sat.trackr.live / text

‹ back to catalog

STARLINK-11683 [DTC]

NORAD 64239 · 2025-119G

PAYLOAD ACTIVE UNKNOWN

§ Identity

Operator
Country
US
Launch date
2025-06-03
Launch site
AFETR
Launch vehicle
Mass (kg)
RCS (m²)

Purposes: comms

External: N2YO · Heavens-Above · Gunter

§ Orbital elements

Epoch: 2026-05-24T21:31:36.475680Z

Period
91.66 min
Inclination
42.9975°
Eccentricity
0.0000817
Mean motion
15.70948350 rev/d
Perigee alt
355.6 km
Apogee alt
356.7 km
Semi-major
6,734.3 km
B*
1.2594e-3
RAAN
109.4483°
Arg perigee
166.9740°
Mean anomaly
193.1149°
Rev number
5,723

§ Raw data

STARLINK-11683 [DTC]1 64239U 25119G   26144.89694995  .00165145  00000+0  12594-2 0  99922 64239  42.9975 109.4483 0000817 166.9740 193.1149 15.70948350 57237

JSON: /api/v1/satellites/64239 · /tle

For live sub-satellite position, see the globe view (requires WebGL).

§ Visibility from observer

Set your observer location to see the next 7 days of passes ≥ 10°. The values pass through the URL so the page stays shareable.

No JS? Fill the form by hand. The geolocation button needs JavaScript.